IZ1DSJ Weather Reports


time (UTC)temp
F
wind
direction
speed
knots
gust
knots
rain 1hr
in
rain 24hr
in
rain mn
in
humidity
%
barometer
mb
20260506203517 52 0.0 0.0 0.00 0.00 0.00 80 1007.6
20260506202537 53 0.0 0.0 0.00 0.00 0.00 80 1007.6
20260506201516 53 0.0 0.0 0.00 0.00 0.00 80 1007.6
20260506200517 53 0.0 0.0 0.00 0.00 0.00 80 1007.5
20260506195517 53 0.0 0.0 0.00 0.00 0.00 80 1007.3
20260506194517 53 0.0 0.0 0.00 0.00 0.00 80 1006.9
20260506193517 53 0.0 0.0 0.00 0.00 0.00 80 1006.7
20260506192516 53 0.0 0.0 0.00 0.00 0.00 80 1006.6
20260506191517 54 0.0 0.0 0.00 0.00 0.00 80 1006.6
20260506190517 54 0.0 0.0 0.00 0.00 0.00 80 1006.4
20260506185517 55 0.0 0.0 0.00 0.00 0.00 80 1006.2
20260506184516 56 0.0 0.0 0.00 0.00 0.00 80 1005.9
20260506183517 56 0.0 0.0 0.00 0.00 0.00 79 1005.8
20260506182517 57 0.0 0.0 0.00 0.00 0.00 79 1005.5
20260506181516 57 0.0 0.0 0.00 0.00 0.00 78 1005.3
20260506180517 57 0.0 0.0 0.00 0.00 0.00 76 1005.2
20260506175536 58 0.0 0.0 0.00 0.00 0.00 75 1005.2
20260506174537 58 0.0 0.0 0.00 0.00 0.00 76 1004.9
20260506173518 57 0.0 0.0 0.00 0.00 0.00 77 1004.8
20260506172516 57 0.0 0.0 0.00 0.00 0.00 77 1004.5
20260506171516 58 0.0 0.0 0.00 0.00 0.00 76 1004.4
20260506170516 59 0.0 0.0 0.00 0.00 0.00 74 1004.3
20260506165517 61 0.0 0.0 0.00 0.00 0.00 71 1004.1
20260506164516 61 0.0 0.0 0.00 0.00 0.00 70 1003.8
20260506163517 61 0.0 0.0 0.00 0.00 0.00 71 1003.7
20260506162516 61 0.0 0.0 0.00 0.00 0.00 70 1003.7
20260506161517 61 0.0 0.0 0.00 0.00 0.00 74 1003.7
20260506160516 60 0.0 0.0 0.00 0.00 0.00 77 1003.7
20260506155516 59 0.0 0.0 0.00 0.00 0.00 78 1003.7
20260506154516 58 0.0 0.0 0.00 0.00 0.00 79 1003.9
20260506153516 58 0.0 0.0 0.00 0.00 0.00 78 1004.4
20260506152517 58 0.0 0.0 0.00 0.00 0.00 77 1004.6
20260506151517 59 0.0 0.0 0.00 0.00 0.00 77 1004.8
20260506150516 59 0.0 0.0 0.00 0.00 0.00 75 1004.7
20260506145516 59 0.0 0.0 0.00 0.00 0.00 75 1004.8
20260506144517 60 0.0 0.0 0.00 0.00 0.00 73 1004.6
20260506143539 60 0.0 0.0 0.00 0.00 0.00 75 1004.5
20260506142517 60 0.0 0.0 0.00 0.00 0.00 78 1004.6
20260506141517 59 0.0 0.0 0.00 0.00 0.00 78 1004.6
20260506140516 60 0.0 0.0 0.00 0.00 0.00 78 1004.9
20260506135536 60 0.0 0.0 0.00 0.00 0.00 76 1004.9
20260506134516 61 0.0 0.0 0.00 0.00 0.00 73 1004.8
20260506133516 61 0.0 0.0 0.00 0.00 0.00 69 1004.9
20260506132516 62 0.0 0.0 0.00 0.00 0.00 69 1004.6
20260506131517 63 0.0 0.0 0.00 0.00 0.00 65 1004.6
20260506130516 63 0.0 0.0 0.00 0.00 0.00 65 1004.7
20260506125516 63 0.0 0.0 0.00 0.00 0.00 66 1004.7
20260506124516 63 0.0 0.0 0.00 0.00 0.00 67 1004.8
20260506123516 63 0.0 0.0 0.00 0.00 0.00 67 1004.8
20260506122536 62 0.0 0.0 0.00 0.00 0.00 68 1004.9
20260506121516 62 0.0 0.0 0.00 0.00 0.00 67 1004.9
20260506120536 61 0.0 0.0 0.00 0.00 0.00 68 1004.8
20260506115516 61 0.0 0.0 0.00 0.00 0.00 69 1004.9
20260506114517 60 0.0 0.0 0.00 0.00 0.00 69 1004.8
20260506113517 59 0.0 0.0 0.00 0.00 0.00 71 1004.8
20260506112517 59 0.0 0.0 0.00 0.00 0.00 71 1004.9
20260506111537 58 0.0 0.0 0.00 0.00 0.00 73 1004.9
20260506110517 57 0.0 0.0 0.00 0.00 0.00 76 1004.9
20260506105537 56 0.0 0.0 0.00 0.00 0.00 75 1004.9
20260506104516 56 0.0 0.0 0.00 0.00 0.00 76 1005.1
20260506103516 55 0.0 0.0 0.00 0.00 0.00 75 1005.0
20260506102516 55 0.0 0.0 0.00 0.00 0.00 76 1004.9
20260506101516 54 0.0 0.0 0.00 0.00 0.00 77 1004.9
20260506100516 54 0.0 0.0 0.00 0.00 0.00 78 1005.0
20260506095516 54 0.0 0.0 0.00 0.00 0.00 79 1005.0
20260506094516 53 0.0 0.0 0.00 0.00 0.00 80 1005.0
20260506093516 51 0.0 0.0 0.00 0.00 0.00 81 1005.1
20260506092516 50 0.0 0.0 0.00 0.00 0.00 81 1005.2
20260506091516 49 0.0 0.0 0.00 0.00 0.00 81 1005.4
20260506090516 49 0.0 0.0 0.00 0.00 0.00 81 1005.6
20260506085516 49 0.0 0.0 0.00 0.00 0.00 81 1005.8
20260506084516 49 0.0 0.0 0.00 0.00 0.00 81 1005.8
20260506083516 49 0.0 0.0 0.00 0.00 0.00 81 1005.9
20260506082516 50 0.0 0.0 0.00 0.00 0.00 81 1005.9
20260506081516 50 0.0 0.0 0.00 0.00 0.00 81 1005.9
20260506080516 50 0.0 0.0 0.00 0.00 0.00 81 1005.9
20260506073516 50 0.0 0.0 0.00 0.00 0.00 81 1005.9
20260506072516 49 0.0 0.0 0.00 0.00 0.00 81 1005.8
20260506071516 49 0.0 0.0 0.00 0.00 0.00 81 1005.8
20260506070535 49 0.0 0.0 0.00 0.00 0.00 81 1005.9
20260506062515 49 0.0 0.0 0.00 0.00 0.00 81 1006.1
20260506061515 49 0.0 0.0 0.00 0.00 0.00 81 1006.0
20260506060516 49 0.0 0.0 0.00 0.00 0.00 81 1005.9
20260506050515 51 0.0 0.0 0.00 0.00 0.00 81 1006.2
20260506044516 51 0.0 0.0 0.00 0.00 0.00 81 1006.2
20260506043535 51 0.0 0.0 0.00 0.00 0.00 81 1006.1
20260506042517 51 0.0 0.0 0.00 0.00 0.00 81 1006.2
20260506041536 51 0.0 0.0 0.00 0.00 0.00 81 1006.2
20260506040516 51 0.0 0.0 0.00 0.00 0.00 81 1006.2
20260506035516 51 0.0 0.0 0.00 0.00 0.00 81 1006.2
20260506034516 51 0.0 0.0 0.00 0.00 0.00 81 1006.3
20260506033515 51 0.0 0.0 0.00 0.00 0.00 81 1006.5
20260506032515 51 0.0 0.0 0.00 0.00 0.00 81 1006.7
20260506031516 51 0.0 0.0 0.00 0.00 0.00 81 1006.9
20260506030516 51 0.0 0.0 0.00 0.00 0.00 81 1007.1
20260506025536 51 0.0 0.0 0.00 0.00 0.00 81 1007.2
20260506024516 51 0.0 0.0 0.00 0.00 0.00 81 1007.2
20260506023536 51 0.0 0.0 0.00 0.00 0.00 81 1007.2
20260506022517 51 0.0 0.0 0.00 0.00 0.00 81 1007.4
20260506021515 51 0.0 0.0 0.00 0.00 0.00 81 1007.4
20260506020518 51 0.0 0.0 0.00 0.00 0.00 81 1007.4
20260506015516 51 0.0 0.0 0.00 0.00 0.00 81 1007.4
20260506014517 51 0.0 0.0 0.00 0.00 0.00 81 1007.5
20260506013515 51 0.0 0.0 0.00 0.00 0.00 81 1007.6
20260506012517 51 0.0 0.0 0.00 0.00 0.00 81 1007.8
20260506011517 51 0.0 0.0 0.00 0.00 0.00 81 1008.3
20260506010517 51 0.0 0.0 0.00 0.00 0.00 81 1008.4
20260506005518 51 0.0 0.0 0.00 0.00 0.00 81 1008.5
20260506004518 51 0.0 0.0 0.00 0.00 0.00 81 1008.5
20260506003517 51 0.0 0.0 0.00 0.00 0.00 81 1008.5
20260506002518 51 0.0 0.0 0.00 0.00 0.00 81 1008.6
20260506001518 51 0.0 0.0 0.00 0.00 0.00 81 1008.7
20260506000517 51 0.0 0.0 0.00 0.00 0.00 81 1008.9
20260505235537 52 0.0 0.0 0.00 0.00 0.00 81 1009.1
20260505234518 52 0.0 0.0 0.00 0.00 0.00 81 1009.2
20260505233517 52 0.0 0.0 0.00 0.00 0.00 81 1009.4
20260505232518 52 0.0 0.0 0.00 0.00 0.00 81 1009.6
20260505231517 52 0.0 0.0 0.00 0.00 0.00 81 1009.7
20260505230518 52 0.0 0.0 0.00 0.00 0.00 81 1009.7
20260505225517 52 0.0 0.0 0.00 0.00 0.00 81 1009.4
20260505224517 52 0.0 0.0 0.00 0.00 0.00 81 1009.3
20260505223517 52 0.0 0.0 0.00 0.00 0.00 81 1009.6
20260505222517 52 0.0 0.0 0.00 0.00 0.00 80 1009.8
20260505221517 52 0.0 0.0 0.00 0.00 0.00 80 1009.7
20260505220537 52 0.0 0.0 0.00 0.00 0.00 80 1009.8
20260505215517 52 0.0 0.0 0.00 0.00 0.00 80 1009.8
20260505214517 52 0.0 0.0 0.00 0.00 0.00 80 1009.8
20260505213517 52 0.0 0.0 0.00 0.00 0.00 80 1009.9
20260505212517 52 0.0 0.0 0.00 0.00 0.00 80 1010.1
20260505211537 52 0.0 0.0 0.00 0.00 0.00 80 1010.0
20260505210516 52 0.0 0.0 0.00 0.00 0.00 80 1010.1
20260505205517 52 0.0 0.0 0.00 0.00 0.00 80 1010.3
20260505204517 52 0.0 0.0 0.00 0.00 0.00 80 1010.2